Orbital Elements
Epoch 2001 June 20.0 TT = JDT 2452080.5
T 2001 June 18.60218 TT Muraoka
q 2.3102895 (2000.0) P Q
n 0.14220076 Peri. 179.16205 -0.31224683 +0.91540372
a 3.6352540 Node 72.61289 -0.87315017 -0.17117120
e 0.3644765 Incl. 15.43868 -0.37431364 -0.36433014
P 6.93
From 70 observations 1980-1997, mean residual 0".91. Nongravitational
parameters A1 = +0.30 +/- 0.15, A2 = +0.1462 +/- 0.0029.
|